| time (UTC) | temp F | wind direction | speed knots | gust knots | rain 1hr in | rain 24hr in | rain mn in | humidity % | barometer mb |
| 20260503211029 | 61 | 245 | 7.8 | 16.5 | 0.00 | 0.00 | 0.00 | 65 | 1012.7 |
| 20260503210530 | 62 | 288 | 6.1 | 13.0 | 0.00 | 0.00 | 0.00 | 66 | 1012.7 |
| 20260503210028 | 62 | 229 | 6.1 | 12.2 | 0.00 | 0.00 | 0.00 | 64 | 1012.7 |
| 20260503205912 | 62 | 240 | 6.1 | 13.9 | 0.00 | 0.00 | 0.00 | 65 | 1012.7 |
| 20260503205023 | 62 | 167 | 7.0 | 14.8 | 0.00 | 0.00 | 0.00 | 64 | 1012.7 |
| 20260503204522 | 62 | 238 | 7.0 | 14.8 | 0.00 | 0.00 | 0.00 | 65 | 1012.7 |
| 20260503204024 | 61 | 272 | 6.1 | 12.2 | 0.00 | 0.00 | 0.00 | 66 | 1012.8 |
| 20260503203523 | 62 | 286 | 6.1 | 12.2 | 0.00 | 0.00 | 0.00 | 64 | 1012.8 |
| 20260503203022 | 60 | 319 | 6.1 | 12.2 | 0.00 | 0.00 | 0.00 | 68 | 1012.8 |
| 20260503202520 | 60 | 284 | 7.0 | 13.9 | 0.00 | 0.00 | 0.00 | 68 | 1012.9 |
| 20260503202019 | 60 | 247 | 6.1 | 13.9 | 0.00 | 0.00 | 0.00 | 68 | 1012.9 |
| 20260503201520 | 60 | 296 | 5.2 | 13.0 | 0.00 | 0.00 | 0.00 | 68 | 1012.9 |
| 20260503201021 | 61 | 197 | 5.2 | 12.2 | 0.00 | 0.00 | 0.00 | 67 | 1012.9 |
| 20260503200525 | 61 | 177 | 7.0 | 12.2 | 0.00 | 0.00 | 0.00 | 66 | 1012.8 |
| 20260503200023 | 60 | 221 | 7.8 | 12.2 | 0.00 | 0.00 | 0.00 | 65 | 1012.8 |
| 20260503195518 | 61 | 273 | 6.1 | 13.0 | 0.00 | 0.00 | 0.00 | 65 | 1012.7 |
| 20260503195018 | 61 | 255 | 4.3 | 13.0 | 0.00 | 0.00 | 0.00 | 66 | 1012.8 |
| 20260503194515 | 62 | 180 | 3.5 | 8.7 | 0.00 | 0.00 | 0.00 | 65 | 1013.0 |
| 20260503194334 | 62 | 227 | 3.5 | 7.8 | 0.00 | 0.00 | 0.00 | 65 | 1012.9 |
| 20260503193512 | 62 | 212 | 4.3 | 9.6 | 0.00 | 0.00 | 0.00 | 66 | 1013.0 |
| 20260503193013 | 60 | 260 | 5.2 | 12.2 | 0.00 | 0.00 | 0.00 | 68 | 1013.0 |
| 20260503192512 | 60 | 264 | 6.1 | 12.2 | 0.00 | 0.00 | 0.00 | 65 | 1012.9 |
| 20260503192010 | 60 | 260 | 5.2 | 8.7 | 0.00 | 0.00 | 0.00 | 67 | 1012.9 |
| 20260503191507 | 60 | 286 | 4.3 | 8.7 | 0.00 | 0.00 | 0.00 | 67 | 1013.1 |
| 20260503191006 | 61 | 227 | 4.3 | 7.8 | 0.00 | 0.00 | 0.00 | 64 | 1013.1 |
| 20260503190509 | 61 | 234 | 5.2 | 11.3 | 0.00 | 0.00 | 0.00 | 65 | 1013.1 |
| 20260503190124 | 61 | 290 | 4.3 | 11.3 | 0.00 | 0.00 | 0.00 | 66 | 1013.1 |
| 20260503185008 | 61 | 221 | 5.2 | 10.4 | 0.00 | 0.00 | 0.00 | 62 | 1013.0 |
| 20260503184505 | 62 | 169 | 6.1 | 11.3 | 0.00 | 0.00 | 0.00 | 64 | 1013.1 |
| 20260503184333 | 61 | 207 | 5.2 | 11.3 | 0.00 | 0.00 | 0.00 | 65 | 1013.1 |
| 20260503183504 | 60 | 205 | 5.2 | 9.6 | 0.00 | 0.00 | 0.00 | 67 | 1013.2 |
| 20260503183004 | 60 | 196 | 4.3 | 9.6 | 0.00 | 0.00 | 0.00 | 66 | 1013.2 |
| 20260503182458 | 60 | 234 | 4.3 | 8.7 | 0.00 | 0.00 | 0.00 | 67 | 1013.1 |
| 20260503181952 | 60 | 214 | 4.3 | 8.7 | 0.00 | 0.00 | 0.00 | 66 | 1013.1 |
| 20260503181549 | 59 | 284 | 4.3 | 8.7 | 0.00 | 0.00 | 0.00 | 67 | 1013.0 |
| 20260503180442 | 60 | 209 | 4.3 | 11.3 | 0.00 | 0.00 | 0.00 | 69 | 1013.0 |
| 20260503175936 | 59 | 202 | 4.3 | 12.2 | 0.00 | 0.00 | 0.00 | 69 | 1013.0 |
| 20260503175437 | 60 | 272 | 5.2 | 12.2 | 0.00 | 0.00 | 0.00 | 69 | 1013.0 |
| 20260503174939 | 59 | 296 | 4.3 | 10.4 | 0.00 | 0.00 | 0.00 | 70 | 1012.9 |
| 20260503174432 | 58 | 276 | 4.3 | 9.6 | 0.00 | 0.00 | 0.00 | 72 | 1013.1 |
| 20260503174306 | 58 | 268 | 5.2 | 9.6 | 0.00 | 0.00 | 0.00 | 73 | 1012.9 |
| 20260503173431 | 58 | 219 | 5.2 | 9.6 | 0.00 | 0.00 | 0.00 | 72 | 1012.9 |
| 20260503172933 | 57 | 298 | 5.2 | 9.6 | 0.00 | 0.00 | 0.00 | 73 | 1013.0 |
| 20260503172433 | 58 | 265 | 6.1 | 11.3 | 0.00 | 0.00 | 0.00 | 72 | 1012.9 |
| 20260503171931 | 58 | 250 | 5.2 | 12.2 | 0.00 | 0.00 | 0.00 | 74 | 1012.9 |
| 20260503171432 | 58 | 284 | 3.5 | 12.2 | 0.00 | 0.00 | 0.00 | 75 | 1013.0 |
| 20260503171051 | 58 | 196 | 3.5 | 8.7 | 0.00 | 0.00 | 0.00 | 74 | 1013.0 |
| 20260503170314 | 58 | 271 | 2.6 | 7.8 | 0.00 | 0.00 | 0.00 | 77 | 1013.0 |
| 20260503150850 | 54 | 171 | 0.0 | 0.9 | 0.00 | 0.00 | 0.00 | 87 | 1012.5 |
| 20260503150353 | 53 | 171 | 0.0 | 1.7 | 0.00 | 0.00 | 0.00 | 87 | 1012.4 |
| 20260503131340 | 52 | 279 | 0.0 | 0.0 | 0.00 | 0.00 | 0.00 | 88 | 1011.2 |
| 20260503130838 | 52 | 279 | 0.0 | 0.0 | 0.00 | 0.00 | 0.00 | 87 | 1011.0 |
| 20260503130337 | 52 | 279 | 0.0 | 0.0 | 0.00 | 0.00 | 0.00 | 87 | 1011.1 |
| 20260503130219 | 52 | 279 | 0.0 | 0.0 | 0.00 | 0.00 | 0.00 | 87 | 1010.9 |
| 20260503120222 | 53 | 225 | 0.0 | 0.0 | 0.00 | 0.00 | 0.00 | 86 | 1011.0 |
| 20260503110704 | 53 | 225 | 0.9 | 2.6 | 0.00 | 0.00 | 0.00 | 86 | 1011.0 |
| 20260503110147 | 53 | 313 | 1.7 | 3.5 | 0.00 | 0.00 | 0.00 | 86 | 1011.1 |
| 20260503090234 | 53 | 307 | 3.5 | 9.6 | 0.00 | 0.00 | 0.00 | 85 | 1011.2 |
| 20260503081239 | 53 | 254 | 1.7 | 2.6 | 0.00 | 0.00 | 0.00 | 84 | 1011.9 |
| 20260503081118 | 53 | 250 | 0.9 | 2.6 | 0.00 | 0.00 | 0.00 | 84 | 1011.9 |
| 20260503080241 | 53 | 290 | 0.9 | 2.6 | 0.00 | 0.00 | 0.00 | 84 | 1011.9 |
| 20260503072731 | 53 | 264 | 1.7 | 6.1 | 0.00 | 0.00 | 0.00 | 84 | 1012.0 |
| 20260503072230 | 53 | 276 | 1.7 | 4.3 | 0.00 | 0.00 | 0.00 | 84 | 1012.0 |
| 20260503071719 | 53 | 259 | 1.7 | 4.3 | 0.00 | 0.00 | 0.00 | 84 | 1012.0 |
| 20260503071212 | 53 | 294 | 1.7 | 5.2 | 0.00 | 0.00 | 0.00 | 84 | 1011.9 |
| 20260503070714 | 53 | 292 | 1.7 | 5.2 | 0.00 | 0.00 | 0.00 | 84 | 1011.9 |
| 20260503070219 | 53 | 304 | 1.7 | 5.2 | 0.00 | 0.00 | 0.00 | 84 | 1012.0 |
| 20260503054645 | 53 | 286 | 5.2 | 10.4 | 0.00 | 0.00 | 0.00 | 83 | 1012.3 |
| 20260503054144 | 53 | 247 | 5.2 | 11.3 | 0.00 | 0.00 | 0.00 | 83 | 1012.3 |
| 20260503053648 | 53 | 300 | 5.2 | 11.3 | 0.00 | 0.00 | 0.00 | 83 | 1012.3 |
| 20260503053144 | 53 | 272 | 6.1 | 10.4 | 0.00 | 0.00 | 0.00 | 84 | 1012.2 |
| 20260503052645 | 53 | 238 | 6.1 | 10.4 | 0.00 | 0.00 | 0.00 | 83 | 1012.4 |
| 20260503052518 | 53 | 268 | 6.1 | 11.3 | 0.00 | 0.00 | 0.00 | 83 | 1012.3 |
| 20260503051948 | 53 | 275 | 7.8 | 12.2 | 0.00 | 0.00 | 0.00 | 83 | 1012.4 |
| 20260503051300 | 53 | 294 | 7.8 | 12.2 | 0.00 | 0.00 | 0.00 | 82 | 1012.4 |
| 20260503050145 | 53 | 262 | 8.7 | 13.9 | 0.00 | 0.00 | 0.00 | 83 | 1012.3 |
| 20260503045644 | 53 | 277 | 8.7 | 13.9 | 0.00 | 0.00 | 0.00 | 83 | 1012.3 |
| 20260503045144 | 53 | 277 | 7.8 | 13.9 | 0.00 | 0.00 | 0.00 | 83 | 1012.4 |
| 20260503044644 | 53 | 265 | 7.0 | 12.2 | 0.00 | 0.00 | 0.00 | 83 | 1012.3 |
| 20260503044145 | 53 | 276 | 7.0 | 12.2 | 0.00 | 0.00 | 0.00 | 83 | 1012.3 |
| 20260503044037 | 53 | 269 | 7.0 | 12.2 | 0.00 | 0.00 | 0.00 | 83 | 1012.3 |
| 20260503043143 | 53 | 281 | 7.0 | 12.2 | 0.00 | 0.00 | 0.00 | 83 | 1012.3 |
| 20260503042643 | 53 | 261 | 7.0 | 12.2 | 0.00 | 0.00 | 0.00 | 83 | 1012.3 |
| 20260503042143 | 53 | 282 | 7.0 | 13.0 | 0.00 | 0.00 | 0.00 | 83 | 1012.2 |
| 20260503042031 | 53 | 272 | 7.8 | 13.0 | 0.00 | 0.00 | 0.00 | 83 | 1012.2 |
| 20260503041301 | 53 | 250 | 7.8 | 15.6 | 0.00 | 0.00 | 0.00 | 82 | 1012.2 |
| 20260503040144 | 53 | 302 | 8.7 | 12.2 | 0.00 | 0.00 | 0.00 | 82 | 1012.0 |
| 20260503035643 | 53 | 284 | 8.7 | 13.9 | 0.00 | 0.00 | 0.00 | 81 | 1012.1 |
| 20260503035143 | 53 | 288 | 8.7 | 14.8 | 0.00 | 0.00 | 0.00 | 81 | 1012.0 |
| 20260503034643 | 53 | 267 | 8.7 | 14.8 | 0.00 | 0.00 | 0.00 | 81 | 1012.0 |
| 20260503034147 | 53 | 252 | 8.7 | 15.6 | 0.00 | 0.00 | 0.00 | 82 | 1012.0 |
| 20260503033641 | 53 | 271 | 9.6 | 16.5 | 0.00 | 0.00 | 0.00 | 82 | 1012.0 |
| 20260503033141 | 53 | 269 | 9.6 | 19.1 | 0.00 | 0.00 | 0.00 | 82 | 1011.9 |
| 20260503032642 | 53 | 254 | 8.7 | 19.1 | 0.00 | 0.00 | 0.00 | 82 | 1011.9 |
| 20260503032142 | 53 | 265 | 7.8 | 13.0 | 0.00 | 0.00 | 0.00 | 82 | 1011.9 |
| 20260503031642 | 53 | 261 | 8.7 | 18.2 | 0.00 | 0.00 | 0.00 | 82 | 1011.8 |
| 20260503031140 | 53 | 270 | 10.4 | 18.2 | 0.00 | 0.00 | 0.00 | 82 | 1011.8 |
| 20260503030637 | 53 | 273 | 10.4 | 17.4 | 0.00 | 0.00 | 0.00 | 82 | 1011.7 |
| 20260503030136 | 53 | 294 | 10.4 | 17.4 | 0.00 | 0.00 | 0.00 | 81 | 1011.5 |
| 20260503030019 | 53 | 284 | 10.4 | 18.2 | 0.00 | 0.00 | 0.00 | 81 | 1011.5 |
| 20260503025137 | 53 | 275 | 10.4 | 18.2 | 0.00 | 0.00 | 0.00 | 81 | 1011.2 |
| 20260503024642 | 53 | 311 | 10.4 | 17.4 | 0.00 | 0.00 | 0.00 | 81 | 1011.2 |
| 20260503024136 | 53 | 246 | 9.6 | 16.5 | 0.00 | 0.00 | 0.00 | 81 | 1011.2 |
| 20260503023637 | 54 | 259 | 8.7 | 17.4 | 0.00 | 0.00 | 0.00 | 81 | 1011.1 |
| 20260503023537 | 54 | 267 | 10.4 | 20.0 | 0.00 | 0.00 | 0.00 | 81 | 1011.0 |
| 20260503022636 | 54 | 236 | 10.4 | 20.0 | 0.00 | 0.00 | 0.00 | 80 | 1011.1 |
| 20260503022136 | 54 | 273 | 9.6 | 18.2 | 0.00 | 0.00 | 0.00 | 80 | 1011.0 |
| 20260503021636 | 54 | 297 | 9.6 | 17.4 | 0.00 | 0.00 | 0.00 | 79 | 1011.0 |
| 20260503021136 | 54 | 265 | 10.4 | 17.4 | 0.00 | 0.00 | 0.00 | 79 | 1011.1 |
| 20260503020636 | 54 | 248 | 9.6 | 16.5 | 0.00 | 0.00 | 0.00 | 79 | 1011.2 |
| 20260503020245 | 55 | 281 | 9.6 | 20.9 | 0.00 | 0.00 | 0.00 | 78 | 1011.2 |
| 20260503020206 | 55 | 289 | 9.6 | 16.5 | 0.00 | 0.00 | 0.00 | 78 | 1011.1 |
| 20260503014636 | 55 | 267 | 8.7 | 16.5 | 0.00 | 0.00 | 0.00 | 77 | 1011.4 |
| 20260503014137 | 55 | 248 | 8.7 | 16.5 | 0.00 | 0.00 | 0.00 | 77 | 1011.2 |
| 20260503014006 | 56 | 281 | 7.8 | 18.2 | 0.00 | 0.00 | 0.00 | 77 | 1011.2 |
| 20260503013136 | 56 | 323 | 7.8 | 18.2 | 0.00 | 0.00 | 0.00 | 77 | 1011.2 |
| 20260503012635 | 56 | 283 | 7.8 | 14.8 | 0.00 | 0.00 | 0.00 | 76 | 1011.2 |
| 20260503012135 | 56 | 283 | 7.0 | 13.0 | 0.00 | 0.00 | 0.00 | 76 | 1011.2 |
| 20260503011636 | 57 | 270 | 6.1 | 13.0 | 0.00 | 0.00 | 0.00 | 76 | 1011.4 |
| 20260503011134 | 57 | 309 | 7.0 | 13.9 | 0.00 | 0.00 | 0.00 | 76 | 1011.4 |
| 20260503010633 | 57 | 289 | 7.0 | 13.9 | 0.00 | 0.00 | 0.00 | 76 | 1011.2 |
| 20260503010524 | 57 | 298 | 6.1 | 12.2 | 0.00 | 0.00 | 0.00 | 75 | 1011.4 |
| 20260503010026 | 57 | 256 | 7.0 | 15.6 | 0.00 | 0.00 | 0.00 | 75 | 1011.2 |
| 20260503005133 | 57 | 242 | 7.8 | 18.2 | 0.00 | 0.00 | 0.00 | 75 | 1011.2 |
| 20260503004633 | 58 | 275 | 8.7 | 18.2 | 0.00 | 0.00 | 0.00 | 74 | 1011.4 |
| 20260503004129 | 58 | 247 | 9.6 | 17.4 | 0.00 | 0.00 | 0.00 | 75 | 1011.2 |
| 20260503003629 | 58 | 283 | 10.4 | 17.4 | 0.00 | 0.00 | 0.00 | 75 | 1011.4 |
| 20260503003131 | 57 | 272 | 10.4 | 20.0 | 0.00 | 0.00 | 0.00 | 76 | 1011.5 |
| 20260503002630 | 57 | 274 | 9.6 | 20.0 | 0.00 | 0.00 | 0.00 | 76 | 1011.6 |
| 20260503002523 | 57 | 258 | 8.7 | 17.4 | 0.00 | 0.00 | 0.00 | 76 | 1011.5 |
| 20260503001803 | 57 | 280 | 8.7 | 16.5 | 0.00 | 0.00 | 0.00 | 75 | 1011.7 |
| 20260503001023 | 59 | 249 | 7.0 | 16.5 | 0.00 | 0.00 | 0.00 | 73 | 1011.7 |
| 20260503000258 | 60 | 263 | 7.0 | 16.5 | 0.00 | 0.00 | 0.00 | 73 | 1011.7 |
| 20260502235130 | 60 | 272 | 8.7 | 14.8 | 0.00 | 0.00 | 0.00 | 73 | 1011.7 |
| 20260502235004 | 60 | 217 | 9.6 | 14.8 | 0.00 | 0.00 | 0.00 | 74 | 1011.6 |
| 20260502234131 | 60 | 255 | 9.6 | 15.6 | 0.00 | 0.00 | 0.00 | 73 | 1011.7 |
| 20260502233629 | 60 | 250 | 9.6 | 16.5 | 0.00 | 0.00 | 0.00 | 73 | 1011.7 |
| 20260502233548 | 60 | 274 | 9.6 | 16.5 | 0.00 | 0.00 | 0.00 | 72 | 1011.8 |
| 20260502232630 | 61 | 223 | 8.7 | 13.9 | 0.00 | 0.00 | 0.00 | 72 | 1011.8 |
| 20260502232130 | 61 | 263 | 8.7 | 13.9 | 0.00 | 0.00 | 0.00 | 71 | 1011.7 |
| 20260502231630 | 61 | 254 | 8.7 | 14.8 | 0.00 | 0.00 | 0.00 | 71 | 1011.9 |
| 20260502231129 | 61 | 234 | 9.6 | 16.5 | 0.00 | 0.00 | 0.00 | 72 | 1011.9 |
| 20260502230629 | 61 | 309 | 9.6 | 16.5 | 0.00 | 0.00 | 0.00 | 72 | 1011.9 |
| 20260502230130 | 61 | 281 | 10.4 | 16.5 | 0.00 | 0.00 | 0.00 | 72 | 1012.0 |
| 20260502225629 | 61 | 265 | 9.6 | 16.5 | 0.00 | 0.00 | 0.00 | 71 | 1012.1 |
| 20260502225129 | 61 | 260 | 10.4 | 16.5 | 0.00 | 0.00 | 0.00 | 72 | 1012.2 |
| 20260502224630 | 62 | 302 | 11.3 | 18.2 | 0.00 | 0.00 | 0.00 | 71 | 1012.2 |
| 20260502224131 | 61 | 274 | 10.4 | 18.2 | 0.00 | 0.00 | 0.00 | 72 | 1012.2 |
| 20260502224008 | 62 | 237 | 9.6 | 15.6 | 0.00 | 0.00 | 0.00 | 69 | 1012.2 |
| 20260502223256 | 63 | 271 | 7.0 | 15.6 | 0.00 | 0.00 | 0.00 | 69 | 1012.2 |
| 20260502222526 | 61 | 221 | 6.1 | 13.0 | 0.00 | 0.00 | 0.00 | 70 | 1012.3 |
| 20260502221625 | 61 | 236 | 7.0 | 13.0 | 0.00 | 0.00 | 0.00 | 71 | 1012.5 |
| 20260502221525 | 61 | 277 | 7.0 | 12.2 | 0.00 | 0.00 | 0.00 | 70 | 1012.5 |
| 20260502220623 | 62 | 279 | 7.8 | 13.9 | 0.00 | 0.00 | 0.00 | 71 | 1012.7 |
| 20260502220124 | 61 | 274 | 8.7 | 13.9 | 0.00 | 0.00 | 0.00 | 71 | 1012.7 |
| 20260502215623 | 61 | 292 | 7.0 | 13.9 | 0.00 | 0.00 | 0.00 | 72 | 1012.7 |
| 20260502215135 | 61 | 270 | 7.8 | 13.0 | 0.00 | 0.00 | 0.00 | 72 | 1012.7 |
| 20260502214625 | 61 | 241 | 8.7 | 13.0 | 0.00 | 0.00 | 0.00 | 72 | 1012.8 |
| 20260502214123 | 61 | 231 | 8.7 | 13.9 | 0.00 | 0.00 | 0.00 | 70 | 1012.8 |
| 20260502213620 | 62 | 279 | 8.7 | 15.6 | 0.00 | 0.00 | 0.00 | 71 | 1012.9 |
| 20260502213117 | 61 | 279 | 7.8 | 15.6 | 0.00 | 0.00 | 0.00 | 71 | 1012.8 |
| 20260502212623 | 61 | 269 | 8.7 | 17.4 | 0.00 | 0.00 | 0.00 | 73 | 1012.8 |
| 20260502212119 | 61 | 225 | 9.6 | 17.4 | 0.00 | 0.00 | 0.00 | 72 | 1012.9 |
| 20260502211944 | 60 | 253 | 7.8 | 15.6 | 0.00 | 0.00 | 0.00 | 73 | 1013.0 |